JA3VQW-13 Weather Reports


time (UTC)temp
C
wind
direction
speed
KPH
gust
KPH
rain 1hr
cm
rain 24hr
cm
rain mn
cm
humidity
%
barometer
mb
20260903163757 24 180 0.0 0.0 0.00 0.41 0.00 84 1002.0
20260903160757 24 180 0.0 0.0 0.00 0.41 0.00 83 1002.0
20260903153800 24 180 0.0 0.0 0.00 0.41 0.00 80 1002.0
20260903150800 24 180 0.0 0.0 0.00 0.41 0.00 76 1002.0
20260903145015 24 180 0.0 0.0 0.00 0.41 0.41 77 1002.0
20260903143800 24 180 0.0 0.0 0.00 0.41 0.41 78 1003.0
20260903140800 24 180 0.0 0.0 0.00 0.41 0.41 79 1003.0
20260903133801 24 180 0.0 0.0 0.00 0.41 0.41 76 1003.0
20260903130801 24 180 0.0 0.0 0.00 3.58 0.41 75 1002.0
20260903123800 24 180 0.0 0.0 0.00 4.75 0.41 75 1003.0
20260903120800 25 135 0.0 0.0 0.00 4.75 0.41 78 1003.0
20260903113759 25 135 0.0 0.0 0.00 4.75 0.41 79 1004.0
20260903110800 24 135 0.0 0.0 0.00 4.75 0.41 80 1004.0
20260903103800 25 135 0.0 0.0 0.00 4.75 0.41 76 1003.0
20260903100800 25 225 0.0 0.0 0.10 4.75 0.41 78 1003.0
20260903093801 25 225 0.0 0.0 0.20 4.75 0.41 79 1003.0
20260903090759 25 225 0.0 0.0 0.20 4.65 0.30 79 1003.0
20260903083759 25 225 0.0 0.0 0.10 4.55 0.20 77 1003.0
20260903080800 26 225 0.0 0.0 0.00 4.45 0.10 74 1003.0
20260903075015 26 225 0.0 0.0 0.00 4.45 0.10 69 1002.0
20260903073759 26 225 0.0 0.0 0.00 4.45 0.10 67 1003.0
20260903073514 26 225 0.0 0.0 0.00 4.45 0.10 67 1003.0
20260903072015 26 225 0.0 0.0 0.00 4.45 0.10 69 1002.0
20260903070800 27 225 0.0 3.2 0.00 4.45 0.10 70 1002.0
20260903070516 27 225 0.0 0.0 0.00 4.45 0.10 71 1002.0
20260903065015 27 180 0.0 0.0 0.00 4.45 0.10 74 1002.0
20260903063800 27 180 0.0 0.0 0.00 4.45 0.10 73 1002.0
20260903063515 27 180 0.0 0.0 0.00 4.45 0.10 72 1002.0
20260903062015 28 180 0.0 0.0 0.00 4.45 0.10 69 1002.0
20260903060759 28 180 0.0 0.0 0.10 4.45 0.10 66 1002.0
20260903060515 28 180 0.0 0.0 0.10 4.45 0.10 66 1002.0
20260903053759 28 180 0.0 0.0 0.10 4.45 0.10 61 1002.0
20260903052016 28 180 0.0 0.0 0.10 4.45 0.10 58 1002.0
20260903050800 28 180 0.0 0.0 0.00 4.34 0.00 58 1002.0
20260903050515 28 180 0.0 0.0 0.00 4.34 0.00 57 1002.0
20260903045014 29 180 0.0 0.0 0.00 4.34 0.00 56 1002.0
20260903043759 29 180 0.0 0.0 0.00 4.34 0.00 54 1002.0
20260903042014 29 180 0.0 0.0 0.00 4.34 0.00 54 1002.0
20260903040759 29 180 0.0 0.0 0.00 4.34 0.00 54 1002.0
20260903040515 29 180 0.0 0.0 0.00 4.34 0.00 54 1002.0
20260903035014 29 180 0.0 0.0 0.00 4.34 0.00 53 1002.0
20260903033759 29 180 0.0 0.0 0.00 4.34 0.00 51 1002.0
20260903033514 29 180 0.0 0.0 0.00 4.34 0.00 50 1002.0
20260903032014 29 180 0.0 0.0 0.00 4.34 0.00 52 1002.0
20260903030758 30 180 0.0 0.0 0.00 4.34 0.00 51 1002.0
20260903025014 29 180 0.0 0.0 0.00 4.34 0.00 52 1003.0
20260903023759 29 180 0.0 0.0 0.00 4.34 0.00 52 1002.0
20260903023514 29 180 0.0 0.0 0.00 4.34 0.00 52 1002.0
20260903022014 29 180 0.0 0.0 0.00 4.34 0.00 55 1002.0
20260903020758 29 180 0.0 0.0 0.00 4.34 0.00 59 1003.0
20260903020513 29 180 0.0 0.0 0.00 4.34 0.00 59 1003.0
20260903015014 28 180 0.0 0.0 0.00 4.34 0.00 63 1003.0
20260903013759 28 180 0.0 0.0 0.00 4.34 0.00 61 1003.0
20260903013514 28 180 0.0 0.0 0.00 4.34 0.00 61 1003.0
20260903010800 28 180 0.0 0.0 0.00 4.34 0.00 64 1003.0
20260903005014 28 180 0.0 0.0 0.00 4.34 0.00 65 1003.0
20260903003800 28 180 0.0 0.0 0.00 4.34 0.00 65 1003.0
20260903003515 28 180 0.0 0.0 0.00 4.34 0.00 64 1003.0
20260903000758 27 180 0.0 0.0 0.00 4.34 0.00 62 1003.0
20260903000514 27 180 0.0 0.0 0.00 4.34 0.00 61 1003.0
20260902235015 27 180 0.0 0.0 0.00 4.34 0.00 60 1003.0
20260902233759 27 180 0.0 0.0 0.00 4.34 0.00 62 1003.0
20260902233514 27 180 0.0 0.0 0.00 4.34 0.00 63 1003.0
20260902230759 27 180 0.0 0.0 0.00 4.34 0.00 66 1003.0
20260902225013 27 180 0.0 0.0 0.00 4.34 0.00 68 1003.0
20260902223800 26 180 0.0 0.0 0.00 4.34 0.00 69 1003.0
20260902223515 26 180 0.0 0.0 0.00 4.34 0.00 69 1003.0
20260902222015 26 180 0.0 0.0 0.00 4.34 0.00 71 1003.0
20260902220759 26 180 0.0 0.0 0.00 4.34 0.00 72 1003.0
20260902215014 26 180 0.0 0.0 0.00 4.34 0.00 75 1003.0
20260902213758 26 180 0.0 0.0 0.00 4.34 0.00 75 1003.0
20260902213513 26 180 0.0 0.0 0.00 4.34 0.00 75 1003.0
20260902212014 26 180 0.0 0.0 0.00 4.34 0.00 75 1002.0
20260902210759 26 180 0.0 0.0 0.00 4.34 0.00 75 1002.0
20260902210514 26 180 0.0 0.0 0.00 4.34 0.00 75 1002.0
20260902205013 26 270 0.0 0.0 0.00 4.34 0.00 77 1002.0
20260902203759 25 270 0.0 0.0 0.00 4.34 0.00 76 1002.0
20260902202014 25 270 0.0 0.0 0.00 4.34 0.00 79 1002.0
20260902200758 25 270 0.0 0.0 0.00 4.34 0.00 79 1002.0
20260902200513 25 270 0.0 0.0 0.00 4.34 0.00 79 1002.0
20260902195014 25 270 0.0 0.0 0.00 4.34 0.00 79 1002.0
20260902193758 25 270 0.0 0.0 0.00 4.34 0.00 79 1002.0
20260902193514 25 270 0.0 0.0 0.00 4.34 0.00 79 1002.0
20260902192013 26 270 0.0 0.0 0.00 4.34 0.00 79 1002.0
20260902190759 26 270 0.0 0.0 0.00 4.34 0.00 79 1002.0
20260902190514 25 270 0.0 0.0 0.00 4.34 0.00 79 1002.0
20260902185014 26 270 0.0 0.0 0.00 4.34 0.00 79 1003.0
20260902183759 25 270 0.0 0.0 0.00 4.34 0.00 80 1003.0
20260902183514 25 270 0.0 0.0 0.00 4.34 0.00 80 1003.0
20260902182014 26 270 0.0 0.0 0.00 4.34 0.00 80 1003.0
20260902180758 26 270 0.0 0.0 0.00 4.34 0.00 82 1002.0
20260902180514 26 270 0.0 0.0 0.00 4.34 0.00 83 1002.0
20260902175014 26 270 0.0 0.0 0.00 4.34 0.00 84 1003.0
20260902173758 25 270 0.0 0.0 0.00 4.34 0.00 84 1003.0
20260902173514 25 270 0.0 0.0 0.00 4.34 0.00 84 1003.0
20260902172013 25 270 0.0 0.0 0.00 4.34 0.00 84 1003.0
20260902170759 25 270 0.0 0.0 0.00 4.34 0.00 83 1003.0
20260902170514 25 270 0.0 0.0 0.00 4.34 0.00 83 1003.0